Time,TemperatureF,DewpointF,PressureIn,WindDirection,WindDirectionDegrees,WindSpeedMPH,WindSpeedGustMPH,Humidity,HourlyPrecipIn,Conditions,Clouds,dailyrainin,SoftwareType,DateUTC
2013-05-25 00:03:00,54.0,-99.9,-100.00,North,-999,-999.0,-999.0,-999,0.00,,,0.14,,2013-05-25 04:03:00,
2013-05-25 00:13:00,54.0,-99.9,-100.00,North,-999,-999.0,-999.0,-999,0.00,,,0.14,,2013-05-25 04:13:00,
2013-05-25 00:33:00,53.0,-99.9,-100.00,North,-999,-999.0,-999.0,-999,0.05,,,0.13,,2013-05-25 04:33:00,
2013-05-25 00:44:00,53.0,-99.9,-100.00,North,-999,-999.0,-999.0,-999,0.05,,,0.13,,2013-05-25 04:44:00,
2013-05-25 00:53:00,53.0,-99.9,-100.00,North,-999,-999.0,-999.0,-999,0.05,,,0.13,,2013-05-25 04:53:00,
2013-05-25 01:03:00,53.0,-99.9,-100.00,North,-999,-999.0,-999.0,-999,0.05,,,0.13,,2013-05-25 05:03:00,
2013-05-25 01:12:00,53.0,-99.9,-100.00,North,-999,-999.0,-999.0,-999,0.05,,,0.13,,2013-05-25 05:12:00,
2013-05-25 01:33:00,53.0,-99.9,-100.00,North,-999,-999.0,-999.0,-999,0.00,,,0.13,,2013-05-25 05:33:00,
2013-05-25 01:43:00,53.0,-99.9,-100.00,North,-999,-999.0,-999.0,-999,0.00,,,0.13,,2013-05-25 05:43:00,
2013-05-25 01:53:00,53.0,-99.9,-100.00,North,-999,-999.0,-999.0,-999,0.00,,,0.13,,2013-05-25 05:53:00,
2013-05-25 02:02:00,53.0,-99.9,-100.00,North,-999,-999.0,-999.0,-999,0.00,,,0.13,,2013-05-25 06:02:00,
2013-05-25 02:12:00,53.0,-99.9,-100.00,North,-999,-999.0,-999.0,-999,0.00,,,0.13,,2013-05-25 06:12:00,
2013-05-25 02:42:00,52.0,-99.9,-100.00,North,-999,-999.0,-999.0,-999,0.01,,,0.14,,2013-05-25 06:42:00,
2013-05-25 02:52:00,52.0,-99.9,-100.00,North,-999,-999.0,-999.0,-999,0.01,,,0.14,,2013-05-25 06:52:00,
2013-05-25 03:02:00,52.0,-99.9,-100.00,North,-999,-999.0,-999.0,-999,0.01,,,0.14,,2013-05-25 07:02:00,
2013-05-25 03:12:00,52.0,-99.9,-100.00,North,-999,-999.0,-999.0,-999,0.01,,,0.14,,2013-05-25 07:12:00,
2013-05-25 03:32:00,52.0,-99.9,-100.00,North,-999,-999.0,-999.0,-999,0.06,,,0.19,,2013-05-25 07:32:00,
2013-05-25 03:42:00,52.0,-99.9,-100.00,North,-999,-999.0,-999.0,-999,0.06,,,0.19,,2013-05-25 07:42:00,
2013-05-25 03:52:00,52.0,-99.9,-100.00,North,-999,-999.0,-999.0,-999,0.06,,,0.19,,2013-05-25 07:52:00,
2013-05-25 04:02:00,52.0,-99.9,-100.00,North,-999,-999.0,-999.0,-999,0.06,,,0.19,,2013-05-25 08:02:00,
2013-05-25 04:11:00,52.0,-99.9,-100.00,North,-999,-999.0,-999.0,-999,0.06,,,0.19,,2013-05-25 08:11:00,
2013-05-25 05:43:00,52.0,-99.9,-100.00,North,-999,-999.0,-999.0,-999,-99.99,,,0.20,,2013-05-25 09:43:00,
2013-05-25 05:53:00,52.0,-99.9,-100.00,North,-999,-999.0,-999.0,-999,-99.99,,,0.20,,2013-05-25 09:53:00,
2013-05-25 06:03:00,52.0,-99.9,-100.00,North,-999,-999.0,-999.0,-999,-99.99,,,0.20,,2013-05-25 10:03:00,
2013-05-25 06:13:00,52.0,-99.9,-100.00,North,-999,-999.0,-999.0,-999,-99.99,,,0.20,,2013-05-25 10:13:00,
2013-05-25 06:33:00,52.0,-99.9,-100.00,North,-999,-999.0,-999.0,-999,0.00,,,0.18,,2013-05-25 10:33:00,
2013-05-25 06:43:00,52.0,-99.9,-100.00,North,-999,-999.0,-999.0,-999,0.00,,,0.18,,2013-05-25 10:43:00,
2013-05-25 06:53:00,52.0,-99.9,-100.00,North,-999,-999.0,-999.0,-999,0.00,,,0.18,,2013-05-25 10:53:00,
2013-05-25 07:03:00,52.0,-99.9,-100.00,North,-999,-999.0,-999.0,-999,0.00,,,0.18,,2013-05-25 11:03:00,
2013-05-25 07:12:00,52.0,-99.9,-100.00,North,-999,-999.0,-999.0,-999,0.00,,,0.18,,2013-05-25 11:12:00,
2013-05-25 07:32:00,52.0,-99.9,-100.00,North,-999,-999.0,-999.0,-999,0.00,,,0.15,,2013-05-25 11:32:00,
2013-05-25 07:42:00,52.0,-99.9,-100.00,North,-999,-999.0,-999.0,-999,0.00,,,0.15,,2013-05-25 11:42:00,
2013-05-25 07:53:00,52.0,-99.9,-100.00,North,-999,-999.0,-999.0,-999,0.00,,,0.15,,2013-05-25 11:53:00,
2013-05-25 08:02:00,52.0,-99.9,-100.00,North,-999,-999.0,-999.0,-999,0.00,,,0.15,,2013-05-25 12:02:00,
2013-05-25 08:12:00,52.0,-99.9,-100.00,North,-999,-999.0,-999.0,-999,0.00,,,0.15,,2013-05-25 12:12:00,
2013-05-25 08:33:00,52.0,-99.9,-100.00,North,-999,-999.0,-999.0,-999,0.00,,,0.15,,2013-05-25 12:33:00,
2013-05-25 08:42:00,52.0,-99.9,-100.00,North,-999,-999.0,-999.0,-999,0.00,,,0.15,,2013-05-25 12:42:00,
2013-05-25 08:52:00,52.0,-99.9,-100.00,North,-999,-999.0,-999.0,-999,0.00,,,0.15,,2013-05-25 12:52:00,
2013-05-25 09:02:00,52.0,-99.9,-100.00,North,-999,-999.0,-999.0,-999,0.00,,,0.15,,2013-05-25 13:02:00,
2013-05-25 09:11:00,52.0,-99.9,-100.00,North,-999,-999.0,-999.0,-999,0.00,,,0.15,,2013-05-25 13:11:00,
2013-05-25 10:32:00,51.0,-99.9,-100.00,North,-999,-999.0,-999.0,-999,-99.99,,,0.15,,2013-05-25 14:32:00,
2013-05-25 10:42:00,51.0,-99.9,-100.00,North,-999,-999.0,-999.0,-999,-99.99,,,0.15,,2013-05-25 14:42:00,
2013-05-25 10:52:00,51.0,-99.9,-100.00,North,-999,-999.0,-999.0,-999,-99.99,,,0.15,,2013-05-25 14:52:00,
2013-05-25 11:02:00,51.0,-99.9,-100.00,North,-999,-999.0,-999.0,-999,-99.99,,,0.15,,2013-05-25 15:02:00,
2013-05-25 11:12:00,51.0,-99.9,-100.00,North,-999,-999.0,-999.0,-999,-99.99,,,0.15,,2013-05-25 15:12:00,
2013-05-25 11:33:00,50.0,-99.9,-100.00,North,-999,-999.0,-999.0,-999,0.02,,,0.16,,2013-05-25 15:33:00,
2013-05-25 11:43:00,50.0,-99.9,-100.00,North,-999,-999.0,-999.0,-999,0.02,,,0.16,,2013-05-25 15:43:00,
2013-05-25 11:54:00,50.0,-99.9,-100.00,North,-999,-999.0,-999.0,-999,0.02,,,0.16,,2013-05-25 15:54:00,
2013-05-25 12:03:00,50.0,-99.9,-100.00,North,-999,-999.0,-999.0,-999,0.02,,,0.16,,2013-05-25 16:03:00,
2013-05-25 12:12:00,50.0,-99.9,-100.00,North,-999,-999.0,-999.0,-999,0.02,,,0.16,,2013-05-25 16:12:00,
2013-05-25 12:33:00,49.0,-99.9,-100.00,North,-999,-999.0,-999.0,-999,0.02,,,0.18,,2013-05-25 16:33:00,
2013-05-25 12:42:00,49.0,-99.9,-100.00,North,-999,-999.0,-999.0,-999,0.02,,,0.18,,2013-05-25 16:42:00,
2013-05-25 12:53:00,49.0,-99.9,-100.00,North,-999,-999.0,-999.0,-999,0.02,,,0.18,,2013-05-25 16:53:00,
2013-05-25 13:03:00,49.0,-99.9,-100.00,North,-999,-999.0,-999.0,-999,0.02,,,0.18,,2013-05-25 17:03:00,
2013-05-25 13:11:00,49.0,-99.9,-100.00,North,-999,-999.0,-999.0,-999,0.02,,,0.18,,2013-05-25 17:11:00,
2013-05-25 13:33:00,48.0,-99.9,-100.00,North,-999,-999.0,-999.0,-999,0.03,,,0.21,,2013-05-25 17:33:00,
2013-05-25 13:42:00,48.0,-99.9,-100.00,North,-999,-999.0,-999.0,-999,0.03,,,0.21,,2013-05-25 17:42:00,
2013-05-25 13:52:00,48.0,-99.9,-100.00,North,-999,-999.0,-999.0,-999,0.03,,,0.21,,2013-05-25 17:52:00,
2013-05-25 14:02:00,48.0,-99.9,-100.00,North,-999,-999.0,-999.0,-999,0.03,,,0.21,,2013-05-25 18:02:00,
2013-05-25 14:12:00,48.0,-99.9,-100.00,North,-999,-999.0,-999.0,-999,0.03,,,0.21,,2013-05-25 18:12:00,
2013-05-25 14:32:00,47.0,-99.9,-100.00,North,-999,-999.0,-999.0,-999,0.02,,,0.23,,2013-05-25 18:32:00,
2013-05-25 14:42:00,47.0,-99.9,-100.00,North,-999,-999.0,-999.0,-999,0.02,,,0.23,,2013-05-25 18:42:00,
2013-05-25 14:52:00,47.0,-99.9,-100.00,North,-999,-999.0,-999.0,-999,0.02,,,0.23,,2013-05-25 18:52:00,
2013-05-25 15:02:00,47.0,-99.9,-100.00,North,-999,-999.0,-999.0,-999,0.02,,,0.23,,2013-05-25 19:02:00,
2013-05-25 15:11:00,47.0,-99.9,-100.00,North,-999,-999.0,-999.0,-999,0.02,,,0.23,,2013-05-25 19:11:00,
2013-05-25 15:32:00,48.0,-99.9,-100.00,North,-999,-999.0,-999.0,-999,0.00,,,0.23,,2013-05-25 19:32:00,
2013-05-25 15:42:00,48.0,-99.9,-100.00,North,-999,-999.0,-999.0,-999,0.00,,,0.23,,2013-05-25 19:42:00,
2013-05-25 15:52:00,48.0,-99.9,-100.00,North,-999,-999.0,-999.0,-999,0.00,,,0.23,,2013-05-25 19:52:00,
2013-05-25 16:02:00,48.0,-99.9,-100.00,North,-999,-999.0,-999.0,-999,0.00,,,0.23,,2013-05-25 20:02:00,
2013-05-25 16:11:00,48.0,-99.9,-100.00,North,-999,-999.0,-999.0,-999,0.00,,,0.23,,2013-05-25 20:11:00,
2013-05-25 16:32:00,49.0,-99.9,-100.00,North,-999,-999.0,-999.0,-999,0.00,,,0.23,,2013-05-25 20:32:00,
2013-05-25 16:42:00,49.0,-99.9,-100.00,North,-999,-999.0,-999.0,-999,0.00,,,0.23,,2013-05-25 20:42:00,
2013-05-25 16:52:00,49.0,-99.9,-100.00,North,-999,-999.0,-999.0,-999,0.00,,,0.23,,2013-05-25 20:52:00,
2013-05-25 17:02:00,49.0,-99.9,-100.00,North,-999,-999.0,-999.0,-999,0.00,,,0.23,,2013-05-25 21:02:00,
2013-05-25 17:11:00,49.0,-99.9,-100.00,North,-999,-999.0,-999.0,-999,0.00,,,0.23,,2013-05-25 21:11:00,
2013-05-25 17:33:00,49.0,-99.9,-100.00,North,-999,-999.0,-999.0,-999,0.01,,,0.24,,2013-05-25 21:33:00,
2013-05-25 17:43:00,49.0,-99.9,-100.00,North,-999,-999.0,-999.0,-999,0.01,,,0.24,,2013-05-25 21:43:00,
2013-05-25 17:54:00,49.0,-99.9,-100.00,North,-999,-999.0,-999.0,-999,0.01,,,0.24,,2013-05-25 21:54:00,
2013-05-25 18:03:00,49.0,-99.9,-100.00,North,-999,-999.0,-999.0,-999,0.01,,,0.24,,2013-05-25 22:03:00,
2013-05-25 18:13:00,49.0,-99.9,-100.00,North,-999,-999.0,-999.0,-999,0.01,,,0.24,,2013-05-25 22:13:00,
2013-05-25 18:33:00,48.0,-99.9,-100.00,North,-999,-999.0,-999.0,-999,0.00,,,0.24,,2013-05-25 22:33:00,
2013-05-25 18:42:00,48.0,-99.9,-100.00,North,-999,-999.0,-999.0,-999,0.00,,,0.24,,2013-05-25 22:42:00,
2013-05-25 18:53:00,48.0,-99.9,-100.00,North,-999,-999.0,-999.0,-999,0.00,,,0.24,,2013-05-25 22:53:00,
2013-05-25 19:02:00,48.0,-99.9,-100.00,North,-999,-999.0,-999.0,-999,0.00,,,0.24,,2013-05-25 23:02:00,
2013-05-25 19:12:00,48.0,-99.9,-100.00,North,-999,-999.0,-999.0,-999,0.00,,,0.24,,2013-05-25 23:12:00,
2013-05-25 19:32:00,46.0,-99.9,-100.00,North,-999,-999.0,-999.0,-999,0.03,,,0.27,,2013-05-25 23:32:00,
2013-05-25 19:42:00,46.0,-99.9,-100.00,North,-999,-999.0,-999.0,-999,0.03,,,0.27,,2013-05-25 23:42:00,
2013-05-25 19:53:00,46.0,-99.9,-100.00,North,-999,-999.0,-999.0,-999,0.03,,,0.27,,2013-05-25 23:53:00,
2013-05-25 20:02:00,46.0,-99.9,-100.00,North,-999,-999.0,-999.0,-999,0.03,,,0.27,,2013-05-26 00:02:00,
2013-05-25 20:12:00,46.0,-99.9,-100.00,North,-999,-999.0,-999.0,-999,0.03,,,0.27,,2013-05-26 00:12:00,
2013-05-25 20:32:00,44.0,-99.9,-100.00,North,-999,-999.0,-999.0,-999,0.06,,,0.33,,2013-05-26 00:32:00,
2013-05-25 20:43:00,44.0,-99.9,-100.00,North,-999,-999.0,-999.0,-999,0.06,,,0.33,,2013-05-26 00:43:00,
2013-05-25 20:53:00,44.0,-99.9,-100.00,North,-999,-999.0,-999.0,-999,0.06,,,0.33,,2013-05-26 00:53:00,
2013-05-25 21:01:00,44.0,-99.9,-100.00,North,-999,-999.0,-999.0,-999,0.06,,,0.33,,2013-05-26 01:01:00,
2013-05-25 21:12:00,44.0,-99.9,-100.00,North,-999,-999.0,-999.0,-999,0.06,,,0.33,,2013-05-26 01:12:00,
2013-05-25 21:32:00,40.0,-99.9,-100.00,North,-999,-999.0,-999.0,-999,0.05,,,0.38,,2013-05-26 01:32:00,
2013-05-25 21:42:00,40.0,-99.9,-100.00,North,-999,-999.0,-999.0,-999,0.05,,,0.38,,2013-05-26 01:42:00,
2013-05-25 21:53:00,40.0,-99.9,-100.00,North,-999,-999.0,-999.0,-999,0.05,,,0.38,,2013-05-26 01:53:00,
2013-05-25 22:02:00,40.0,-99.9,-100.00,North,-999,-999.0,-999.0,-999,0.05,,,0.38,,2013-05-26 02:02:00,
2013-05-25 22:11:00,40.0,-99.9,-100.00,North,-999,-999.0,-999.0,-999,0.05,,,0.38,,2013-05-26 02:11:00,
2013-05-25 23:33:00,41.0,-99.9,-100.00,North,-999,-999.0,-999.0,-999,-99.99,,,0.50,,2013-05-26 03:33:00,
2013-05-25 23:43:00,41.0,-99.9,-100.00,North,-999,-999.0,-999.0,-999,-99.99,,,0.50,,2013-05-26 03:43:00,
2013-05-25 23:54:00,41.0,-99.9,-100.00,North,-999,-999.0,-999.0,-999,-99.99,,,0.50,,2013-05-26 03:54:00,